Home > Weather > Bologna > Past weeks

Flag for Italy Weather for the Past 2 Weeks in Bologna, Italy

Now
52 °F

Partly sunny.


Feels Like: 48 °F
Forecast: 46 / 56 °F
Wind: 10 mph from Southeast

Location: Bologna / Borgo Panigale

Current Time: Feb 7, 2016 at 12:39:04 PM

Latest Report: Feb 7, 2016 at 11:50 AM


Visibility: N/A

Pressure: 29.98 "Hg

Humidity: 77%

Dew point: 45 °F

Location of BolognaLocation

Historic Weather in Bologna — Graph

°F

Bologna Temperature Yesterday

Maximum temperature yesterday: 52 °F (at 1:50 PM)
Minimum temperature yesterday: 32 °F (at 4:50 AM)
Average temperature yesterday: 42 °F

High & Low Weather Summary for the Past Weeks

 TemperatureHumidityPressure
High59 °F (Jan 26, 3:20 PM)100% (Jan 26, 9:20 PM)30.63 "Hg (Jan 26, 9:20 PM)
Low28 °F (Jan 24, 3:50 AM)32% (Feb 4, 5:20 PM)29.83 "Hg (Feb 3, 4:50 PM)
Average43 °F84%30.32 "Hg
* Reported Jan 23 11:20 AM — Feb 7 11:20 AM, Bologna, Weather by CustomWeather, © 2016

Note: Actual official high and low records may vary slightly from our data, if they occured in-between our weather recording intervals... More about our weather records

Advertising

Bologna Weather History for the Previous 24 Hours

 ConditionsComfort  
Time TempWeatherWind HumidityBarometerVisibility
11:20 AM
Sun, Feb 7
52 °FPartly sunny.9 mph77%29.98 "HgN/A
10:50 AM52 °FPartly sunny.7 mph77%29.98 "HgN/A
10:20 AM52 °FPartly sunny.6 mph72%30.01 "HgN/A
9:50 AM52 °FPartly sunny.12 mph72%30.01 "HgN/A
9:20 AM48 °FPartly sunny.8 mph76%30.01 "HgN/A
8:50 AM48 °FPartly sunny.10 mph76%30.04 "HgN/A
8:20 AM48 °FPartly sunny.8 mph76%30.04 "HgN/A
7:50 AM48 °FPartly sunny.8 mph76%30.04 "HgN/A
7:20 AM48 °FPassing clouds.7 mph76%30.04 "HgN/A
6:50 AM48 °FPassing clouds.8 mph76%30.04 "HgN/A
6:20 AM50 °FPassing clouds.10 mph71%30.07 "HgN/A
5:50 AM50 °FPassing clouds.10 mph71%30.07 "HgN/A
4:20 AM41 °FPassing clouds.1 mph93%30.12 "Hg5 mi
2:50 AM46 °FPassing clouds.5 mph76%30.15 "Hg5 mi
2:20 AM46 °FPassing clouds.6 mph82%30.15 "Hg5 mi
1:50 AM45 °FPassing clouds.9 mph87%30.18 "Hg5 mi
1:20 AM41 °FPassing clouds.7 mph100%30.18 "Hg5 mi
12:50 AM39 °FPassing clouds.3 mph100%30.21 "Hg5 mi
12:20 AM39 °FPassing clouds.2 mph100%30.21 "Hg5 mi
11:50 PM
Sat, Feb 6
39 °FPassing clouds.No wind93%30.24 "Hg5 mi
11:20 PM41 °FPassing clouds.1 mph93%30.24 "Hg5 mi
10:50 PM41 °FPassing clouds.2 mph93%30.27 "Hg5 mi
9:50 PM41 °FPassing clouds.No wind87%30.27 "Hg5 mi
9:20 PM41 °FClear.2 mph93%30.30 "Hg10 mi
8:50 PM41 °FClear.No wind87%30.30 "Hg10 mi
8:20 PM41 °FClear.2 mph87%30.30 "Hg10 mi
7:50 PM43 °FClear.1 mph87%30.30 "Hg10 mi
7:20 PM43 °FClear.No wind87%30.30 "Hg10 mi
6:50 PM41 °FClear.2 mph87%30.30 "Hg10 mi
6:20 PM41 °FClear.1 mph93%30.33 "Hg10 mi
5:50 PM46 °FClear.3 mph82%30.33 "Hg10 mi
5:20 PM48 °FSunny.3 mph76%30.33 "Hg10 mi
4:50 PM50 °FSunny.3 mph71%30.33 "Hg10 mi
4:20 PM52 °FSunny.1 mph67%30.33 "Hg10 mi
3:50 PM52 °FPassing clouds.3 mph67%30.33 "HgN/A
3:20 PM52 °FSunny.2 mph72%30.33 "Hg10 mi
2:50 PM52 °FSunny.2 mph67%30.36 "Hg10 mi
2:20 PM52 °FSunny.2 mph72%30.36 "Hg10 mi
1:50 PM52 °FSunny.2 mph67%30.36 "Hg10 mi
1:20 PM50 °FPassing clouds.3 mph76%30.39 "HgN/A
12:50 PM50 °FSunny.2 mph71%30.39 "Hg10 mi
12:20 PM48 °FPassing clouds.6 mph76%30.42 "HgN/A
Weather by CustomWeather, © 2016

See weather overviewHow to use our weather pages